星链-37579(STARLINK-37579)

导读

STARLINK-37579(NORAD编号69843)是美国太空探索技术公司(SpaceX)星链(Starlink)低轨宽带通信星座的组网卫星之一,于2026年中由猎鹰9号火箭发射入轨,属于星链增量补网批次卫星。该卫星运行在高度约340千米的近地轨道,轨道倾角约53度,轨道周期约91分钟,采用星链标准平板构型,搭载Ku/Ka波段通信载荷与霍尔电推进系统,支持星间激光链路,主要用于为全球提供低时延卫星宽带互联网接入服务,设计寿命约5-7年,末期将主动离轨再入大气层销毁,降低空间碎片风险。

Basic Information
目录编号:
69843
目录名称:
STARLINK-37579
国际标识:
2026-154AA
轨道中心:
EARTH
卫星名称:
星链-37579
卫星全名:
星链-37579(STARLINK-37579)
卫星状态:
在轨 (已飞行61 天)
发射日期:
2026-07-05 UTC
国别 :
美国 (US)
星等 :
--
Orbit Information
数据来源 国际轨道数据 AOE轨道数据
星历时间 2026-09-04T05:13:16+0800
10小时前
查看轨道信息
2026-09-03T07:00:00+0800
1天前
查看轨道信息
半长轴 6840.849km 6840.814km
偏心率 0.0000653 0.0000625
轨道倾角 53.160° 53.161°
近地点辐角 78.112° 80.188°
升交点赤经 49.627° 53.956°
平近点角 281.995° 202.691°
近地点 462.265km 462.249km
远地点 463.159km 463.105km
周期 93.848分钟 93.847分钟
每日圈数 15.343971 15.34409
Detailed Information
固有亮度:
5
最大亮度:
2.5
卫星平台:
Starlink V1.0
覆盖范围:
全球
运营商:
太空探索技术公司
运营商所在国:
美国
制造商(研发单位):
太空探索技术公司
制造商所在国:
美国
使用方式:
暂无
Satellite Introduction
Starlink 计划是 SpaceX 推出的全球卫星互联网项目,通过发射低轨道卫星,为全球尤其是偏远地区提供高速、低延迟的互联网服务。自 2019 年起,Starlink 已部署数千颗卫星,旨在缩小全球数字鸿沟,推动互联网普及。该项目还为军事、航空等行业提供通信支持,带来广泛经济效益。
2D Orbit Map
3D Orbit Map
Orbit Altitude Analysis Chart
Orbit Inclination Analysis Chart
Orbit Comprehensive Analysis Chart
View Comprehensive Chart
Conjunction Data List
Event ID Objects TCA Miss Dist (km) Collision Risk Probability Collision Risk Index (CRI) Action
CDM_260905-062206-468206-984321
2026-09-05T
06:22:51+0000
0.408 km
远距离
1.625406E-4 高风险 0.79
CDM_260905-120005-871806-984321
2026-09-05T
12:00:37+0000
1.043 km
极远距离
1.40559E-5 中风险 0.58
CDM_260904-100506-662206-984321
2026-09-04T
10:05:31+0000
0.847 km
远距离
1.224589E-5 中风险 0.57
CDM_260905-102605-871806-984321
2026-09-05T
10:26:49+0000
1.477 km
极远距离
4.30672E-6 低风险 0.48
CDM_260828-214106-584306-984321
2026-08-28T
21:41:18+0000
1.509 km
极远距离
4.0617E-6 低风险 0.47
CDM_260905-044906-468206-984321
2026-09-05T
04:49:04+0000
1.557 km
极远距离
2.673533E-6 低风险 0.44
CDM_260905-075606-468206-984321
2026-09-05T
07:56:38+0000
1.904 km
极远距离
1.530708E-6 低风险 0.39
CDM_260904-144405-301906-984321
2026-09-04T
14:44:24+0000
2.995 km
极远距离
7.368372E-7 极低风险 0.32
CDM_260904-105206-662206-984321
2026-09-04T
10:52:25+0000
2.242 km
极远距离
6.955696E-7 极低风险 0.32